Location: Oroua River
(40.4333°S, 175.4333°E)
Time: 14:13:04
(UTC+00:00)

Meteor 1-24 Rocket - Pass Details

Date: 03 February 2023
Orbit: 790 x 927 km, 81.3° (Epoch: 31 March)

Event Time Altitude Azimuth Distance (km) Brightness Sun altitude
Rises 16:53:41 0° 350° (N) 3,379 6.5 -6.9°
Reaches altitude 10° 16:56:02 10° 348° (NNW) 2,473 5.8 -6.5°
Maximum altitude 17:01:41 81° 260° (W) 896 3.8 -5.6°
Drops below altitude 10° 17:07:37 10° 172° (S) 2,598 6.8 -4.5°
Sets 17:10:09 0° 171° (S) 3,563 7.5 -4.1°
